| time (UTC) | temp C | wind direction | speed KPH | gust KPH | rain 1hr cm | rain 24hr cm | rain mn cm | humidity % | barometer mb |
| 20260507070217 | 13 | 224 | 0.0 | 321.9 | 0.00 | 0.00 | 0.66 | 94 | 630.8 |
| 20260507065716 | 13 | 63 | 0.0 | 321.9 | 0.00 | 0.00 | 0.66 | 94 | 554.9 |
| 20260507064700 | 13 | 69 | 0.0 | 321.9 | 0.03 | 0.00 | 0.66 | 96 | 552.0 |
| 20260507064200 | 13 | 55 | 0.0 | 321.9 | 0.03 | 0.00 | 0.66 | 96 | 681.2 |
| 20260507063700 | 13 | 345 | 0.0 | 321.9 | 0.05 | 0.00 | 0.66 | 96 | 936.9 |
| 20260507063200 | 13 | 297 | 0.0 | 321.9 | 0.05 | 0.00 | 0.66 | 96 | 776.8 |
| 20260507062700 | 13 | 100 | 0.0 | 321.9 | 0.13 | 0.00 | 0.66 | 96 | 611.6 |
| 20260507061137 | 13 | 64 | 0.0 | 321.9 | 0.48 | 0.00 | 0.66 | 95 | 719.0 |
| 20260507060636 | 13 | 165 | 0.0 | 321.9 | 0.61 | 0.00 | 0.66 | 95 | 750.8 |
| 20260507055104 | 14 | 253 | 0.0 | 321.9 | 0.66 | 0.00 | 0.66 | 94 | 875.2 |
| 20260507054604 | 14 | 265 | 0.0 | 321.9 | 0.64 | 0.00 | 0.64 | 94 | 845.2 |
| 20260507054104 | 14 | 254 | 0.0 | 321.9 | 0.64 | 0.00 | 0.64 | 93 | 889.9 |
| 20260507053604 | 14 | 254 | 0.0 | 321.9 | 0.61 | 0.00 | 0.61 | 93 | 873.4 |
| 20260507053104 | 14 | 252 | 0.0 | 321.9 | 0.61 | 0.00 | 0.61 | 92 | 840.1 |
| 20260507052604 | 14 | 201 | 0.0 | 321.9 | 0.56 | 0.00 | 0.56 | 92 | 784.8 |
| 20260507052104 | 14 | 285 | 0.0 | 321.9 | 0.46 | 0.00 | 0.46 | 91 | 766.7 |
| 20260507051604 | 15 | 223 | 0.0 | 321.9 | 0.36 | 0.00 | 0.36 | 89 | 709.8 |
| 20260507051104 | 15 | 168 | 0.0 | 321.9 | 0.23 | 0.00 | 0.23 | 87 | 677.9 |
| 20260507050604 | 16 | 241 | 0.0 | 321.9 | 0.08 | 0.00 | 0.08 | 84 | 773.0 |
| 20260507050104 | 16 | 311 | 0.0 | 321.9 | 0.00 | 0.00 | 0.00 | 81 | 794.2 |
| 20260507045604 | 16 | 68 | 0.0 | 321.9 | 0.00 | 0.00 | 0.00 | 78 | 722.2 |
| 20260507045104 | 16 | 212 | 0.0 | 321.9 | 0.00 | 0.00 | 0.00 | 78 | 739.8 |
| 20260507044604 | 16 | 276 | 0.0 | 321.9 | 0.00 | 0.00 | 0.00 | 77 | 739.7 |
| 20260507043548 | 17 | 355 | 0.0 | 321.9 | 0.00 | 0.00 | 0.00 | 80 | 675.8 |
| 20260507043047 | 17 | 129 | 0.0 | 321.9 | 0.00 | 0.00 | 0.00 | 78 | 682.6 |
| 20260507042546 | 17 | 43 | 0.0 | 321.9 | 0.00 | 0.00 | 0.00 | 78 | 631.8 |
| 20260507042045 | 17 | 220 | 0.0 | 321.9 | 0.00 | 0.00 | 0.00 | 78 | 696.0 |
| 20260507041544 | 17 | 136 | 0.0 | 321.9 | 0.00 | 0.00 | 0.00 | 79 | 656.2 |
| 20260507041043 | 17 | 78 | 0.0 | 321.9 | 0.00 | 0.00 | 0.00 | 79 | 550.0 |
| 20260507035521 | 17 | 70 | 0.0 | 321.9 | 0.00 | 0.00 | 0.00 | 77 | 594.3 |
| 20260507035020 | 17 | 179 | 0.0 | 321.9 | 0.00 | 0.00 | 0.00 | 75 | 722.5 |
| 20260507034519 | 18 | 32 | 0.0 | 321.9 | 0.00 | 0.00 | 0.00 | 75 | 689.9 |
| 20260507033503 | 18 | 354 | 0.0 | 321.9 | 0.00 | 0.00 | 0.00 | 76 | 619.1 |
| 20260507033002 | 18 | 67 | 0.0 | 321.9 | 0.00 | 0.00 | 0.00 | 77 | 627.1 |
| 20260507032501 | 18 | 50 | 0.0 | 321.9 | 0.00 | 0.00 | 0.00 | 79 | 633.3 |
| 20260507032000 | 18 | 95 | 0.0 | 321.9 | 0.00 | 0.00 | 0.33 | 81 | 610.6 |
| 20260507030953 | 18 | 138 | 0.0 | 321.9 | 0.00 | 0.00 | 0.33 | 81 | 727.1 |
| 20260507030452 | 19 | 249 | 0.0 | 321.9 | 0.00 | 0.00 | 0.33 | 81 | 777.2 |
| 20260507025950 | 19 | 250 | 0.0 | 321.9 | 0.00 | 0.00 | 0.33 | 80 | 692.2 |
| 20260507025449 | 19 | 273 | 0.0 | 321.9 | 0.00 | 0.00 | 0.33 | 81 | 719.2 |
| 20260507024442 | 19 | 326 | 0.0 | 321.9 | 0.00 | 0.00 | 0.33 | 84 | 682.7 |
| 20260507023425 | 20 | 206 | 0.0 | 321.9 | 0.00 | 0.00 | 0.33 | 82 | 821.9 |
| 20260507022924 | 20 | 217 | 0.0 | 321.9 | 0.00 | 0.00 | 0.33 | 83 | 830.3 |
| 20260507022423 | 20 | 205 | 0.0 | 321.9 | 0.00 | 0.00 | 0.33 | 84 | 783.4 |
| 20260507021922 | 20 | 218 | 0.0 | 321.9 | 0.00 | 0.00 | 0.33 | 83 | 799.8 |
| 20260507021421 | 20 | 284 | 0.0 | 321.9 | 0.00 | 0.00 | 0.33 | 83 | 798.5 |
| 20260507020920 | 20 | 230 | 0.0 | 321.9 | 0.00 | 0.00 | 0.33 | 84 | 791.4 |
| 20260507015904 | 20 | 326 | 0.0 | 321.9 | 0.00 | 0.00 | 0.33 | 85 | 758.1 |
| 20260507015404 | 20 | 171 | 0.0 | 321.9 | 0.00 | 0.00 | 0.33 | 85 | 777.5 |
| 20260507014348 | 20 | 241 | 0.0 | 321.9 | 0.00 | 0.00 | 0.33 | 84 | 794.0 |
| 20260507013847 | 20 | 210 | 0.0 | 321.9 | 0.00 | 0.00 | 0.33 | 84 | 773.3 |
| 20260507012830 | 20 | 190 | 0.0 | 321.9 | 0.00 | 0.00 | 0.33 | 85 | 726.1 |
| 20260507012329 | 20 | 203 | 0.0 | 321.9 | 0.00 | 0.00 | 0.33 | 85 | 744.0 |
| 20260507011312 | 19 | 207 | 0.0 | 321.9 | 0.00 | 0.00 | 0.33 | 86 | 739.6 |
| 20260507010812 | 19 | 191 | 0.0 | 321.9 | 0.00 | 0.00 | 0.33 | 86 | 737.5 |
| 20260507010311 | 19 | 217 | 0.0 | 321.9 | 0.00 | 0.00 | 0.33 | 87 | 747.2 |
| 20260507005810 | 19 | 208 | 0.0 | 321.9 | 0.00 | 0.00 | 0.33 | 87 | 728.8 |
| 20260507005308 | 19 | 205 | 0.0 | 321.9 | 0.00 | 0.00 | 0.33 | 87 | 700.2 |
| 20260507004808 | 19 | 193 | 0.0 | 321.9 | 0.00 | 0.00 | 0.33 | 87 | 678.9 |
| 20260507003255 | 19 | 165 | 0.0 | 321.9 | 0.00 | 0.00 | 0.33 | 87 | 642.1 |
| 20260507002754 | 19 | 165 | 0.0 | 321.9 | 0.00 | 0.00 | 0.33 | 87 | 644.6 |
| 20260507002253 | 19 | 164 | 0.0 | 321.9 | 0.00 | 0.00 | 0.33 | 87 | 648.8 |
| 20260507001752 | 19 | 165 | 0.0 | 321.9 | 0.00 | 0.00 | 0.33 | 87 | 657.2 |
| 20260507001251 | 19 | 165 | 0.0 | 321.9 | 0.00 | 0.00 | 0.33 | 87 | 673.8 |
| 20260507000751 | 19 | 278 | 0.0 | 321.9 | 0.00 | 0.00 | 0.33 | 87 | 711.5 |
| 20260507000251 | 19 | 181 | 0.0 | 321.9 | 0.00 | 0.00 | 0.33 | 87 | 596.1 |
| 20260506235243 | 20 | 99 | 0.0 | 321.9 | 0.00 | 0.00 | 0.33 | 87 | 415.9 |
| 20260506234742 | 20 | 87 | 0.0 | 321.9 | 0.00 | 0.00 | 0.33 | 87 | 405.9 |
| 20260506234241 | 20 | 87 | 0.0 | 321.9 | 0.00 | 0.00 | 0.33 | 87 | 406.4 |
| 20260506233225 | 20 | 87 | 0.0 | 321.9 | 0.00 | 0.00 | 0.33 | 86 | 404.0 |
| 20260506232218 | 20 | 84 | 0.0 | 321.9 | 0.00 | 0.00 | 0.33 | 86 | 405.7 |
| 20260506231717 | 20 | 84 | 0.0 | 321.9 | 0.00 | 0.00 | 0.33 | 85 | 411.9 |
| 20260506231215 | 20 | 84 | 0.0 | 321.9 | 0.00 | 0.00 | 0.33 | 85 | 423.6 |
| 20260506230715 | 20 | 92 | 0.0 | 321.9 | 0.00 | 0.00 | 0.33 | 85 | 442.0 |
| 20260506230215 | 20 | 92 | 0.0 | 321.9 | 0.00 | 0.00 | 0.33 | 84 | 460.4 |
| 20260506225715 | 20 | 92 | 0.0 | 321.9 | 0.00 | 0.00 | 0.33 | 85 | 496.8 |
| 20260506224709 | 21 | 179 | 0.0 | 321.9 | 0.00 | 0.00 | 0.33 | 83 | 616.8 |
| 20260506224208 | 21 | 179 | 0.0 | 321.9 | 0.00 | 0.00 | 0.33 | 82 | 553.7 |
| 20260506223707 | 21 | 69 | 0.0 | 321.9 | 0.00 | 0.00 | 0.33 | 81 | 452.1 |
| 20260506222651 | 21 | 165 | 0.0 | 321.9 | 0.00 | 0.00 | 0.33 | 79 | 643.2 |
| 20260506222150 | 21 | 178 | 0.0 | 321.9 | 0.00 | 0.00 | 0.33 | 77 | 686.8 |
| 20260506221649 | 21 | 174 | 0.0 | 321.9 | 0.00 | 0.00 | 0.33 | 77 | 703.9 |
| 20260506221147 | 21 | 209 | 0.0 | 321.9 | 0.00 | 0.00 | 0.33 | 77 | 730.3 |
| 20260506220131 | 21 | 212 | 0.0 | 321.9 | 0.00 | 0.00 | 0.33 | 79 | 724.2 |
| 20260506215630 | 21 | 189 | 0.0 | 321.9 | 0.00 | 0.00 | 0.33 | 82 | 667.4 |
| 20260506214623 | 20 | 197 | 0.0 | 321.9 | 0.00 | 0.00 | 0.33 | 85 | 472.8 |
| 20260506214122 | 20 | 56 | 0.0 | 321.9 | 0.00 | 0.00 | 0.33 | 86 | 348.9 |
| 20260506213621 | 20 | 56 | 0.0 | 321.9 | 0.00 | 0.00 | 0.33 | 86 | 374.4 |
| 20260506213120 | 20 | 56 | 0.0 | 321.9 | 0.00 | 0.00 | 0.33 | 86 | 425.8 |
| 20260506212617 | 20 | 55 | 0.0 | 321.9 | 0.00 | 0.00 | 0.33 | 85 | 528.8 |
| 20260506211611 | 20 | 137 | 0.0 | 321.9 | 0.00 | 0.00 | 0.33 | 85 | 617.1 |
| 20260506210555 | 20 | 132 | 0.0 | 321.9 | 0.00 | 0.00 | 0.33 | 84 | 583.5 |
| 20260506210054 | 20 | 142 | 0.0 | 321.9 | 0.00 | 0.00 | 0.33 | 83 | 623.1 |
| 20260506204533 | 21 | 134 | 0.0 | 321.9 | 0.00 | 0.00 | 0.33 | 81 | 530.5 |
| 20260506203526 | 21 | 158 | 0.0 | 321.9 | 0.00 | 0.00 | 0.33 | 78 | 617.4 |
| 20260506203025 | 22 | 118 | 0.0 | 321.9 | 0.00 | 0.00 | 0.33 | 76 | 675.8 |
| 20260506202524 | 22 | 188 | 0.0 | 321.9 | 0.00 | 0.00 | 0.33 | 75 | 722.9 |
| 20260506202024 | 22 | 185 | 0.0 | 321.9 | 0.00 | 0.00 | 0.33 | 74 | 728.7 |
| 20260506201523 | 22 | 205 | 0.0 | 321.9 | 0.00 | 0.00 | 0.33 | 74 | 724.3 |
| 20260506201022 | 22 | 191 | 0.0 | 321.9 | 0.00 | 0.00 | 0.33 | 74 | 733.8 |
| 20260506200006 | 22 | 204 | 0.0 | 321.9 | 0.00 | 0.00 | 0.33 | 76 | 689.6 |
| 20260506195505 | 22 | 205 | 0.0 | 321.9 | 0.00 | 0.00 | 0.33 | 76 | 737.7 |
| 20260506194448 | 22 | 187 | 0.0 | 321.9 | 0.00 | 0.00 | 0.33 | 77 | 721.3 |
| 20260506193947 | 21 | 194 | 0.0 | 321.9 | 0.00 | 0.00 | 0.33 | 76 | 730.2 |
| 20260506193446 | 21 | 195 | 0.0 | 321.9 | 0.00 | 0.00 | 0.33 | 77 | 725.9 |
| 20260506192945 | 21 | 175 | 0.0 | 321.9 | 0.00 | 0.00 | 0.33 | 77 | 737.2 |
| 20260506192444 | 21 | 198 | 0.0 | 321.9 | 0.00 | 0.00 | 0.33 | 76 | 756.2 |
| 20260506190355 | 20 | 170 | 0.0 | 321.9 | 0.00 | 0.00 | 0.33 | 80 | 761.6 |
| 20260506185854 | 20 | 217 | 0.0 | 321.9 | 0.00 | 0.00 | 0.33 | 81 | 791.4 |
| 20260506185353 | 20 | 242 | 0.0 | 321.9 | 0.00 | 0.00 | 0.33 | 81 | 787.6 |
| 20260506184852 | 20 | 215 | 0.0 | 321.9 | 0.00 | 0.00 | 0.33 | 82 | 766.9 |
| 20260506184351 | 20 | 205 | 0.0 | 321.9 | 0.00 | 0.00 | 0.33 | 83 | 736.5 |
| 20260506183334 | 20 | 189 | 0.0 | 321.9 | 0.00 | 0.00 | 0.33 | 84 | 715.6 |
| 20260506182327 | 19 | 170 | 0.0 | 321.9 | 0.00 | 0.00 | 0.33 | 86 | 712.5 |
| 20260506181826 | 19 | 153 | 0.0 | 321.9 | 0.00 | 0.00 | 0.33 | 85 | 730.9 |
| 20260506180809 | 19 | 202 | 0.0 | 321.9 | 0.00 | 0.00 | 0.33 | 86 | 773.2 |
| 20260506180308 | 18 | 214 | 0.0 | 321.9 | 0.00 | 0.00 | 0.33 | 87 | 760.2 |
| 20260506175808 | 18 | 207 | 0.0 | 321.9 | 0.00 | 0.00 | 0.33 | 87 | 755.0 |
| 20260506174751 | 18 | 164 | 0.0 | 321.9 | 0.00 | 0.00 | 0.33 | 89 | 715.6 |
| 20260506174250 | 18 | 190 | 0.0 | 321.9 | 0.00 | 0.00 | 0.33 | 89 | 739.0 |
| 20260506173749 | 18 | 223 | 0.0 | 321.9 | 0.00 | 0.00 | 0.33 | 90 | 750.1 |
| 20260506172732 | 18 | 187 | 0.0 | 321.9 | 0.00 | 0.00 | 0.33 | 92 | 714.7 |
| 20260506172231 | 17 | 183 | 0.0 | 321.9 | 0.00 | 0.00 | 0.33 | 92 | 709.0 |
| 20260506171730 | 17 | 221 | 0.0 | 321.9 | 0.00 | 0.00 | 0.33 | 93 | 721.3 |
| 20260506171229 | 17 | 180 | 0.0 | 321.9 | 0.00 | 0.00 | 0.33 | 93 | 684.8 |
| 20260506170728 | 17 | 188 | 0.0 | 321.9 | 0.00 | 0.00 | 0.33 | 94 | 690.6 |
| 20260506170227 | 17 | 147 | 0.0 | 321.9 | 0.00 | 0.00 | 0.33 | 93 | 645.4 |
| 20260506165726 | 17 | 170 | 0.0 | 321.9 | 0.00 | 0.00 | 0.33 | 93 | 685.6 |
| 20260506164719 | 17 | 188 | 0.0 | 321.9 | 0.00 | 0.00 | 0.33 | 94 | 653.4 |
| 20260506163156 | 17 | 177 | 0.0 | 321.9 | 0.00 | 0.00 | 0.33 | 95 | 674.2 |
| 20260506162139 | 17 | 169 | 0.0 | 321.9 | 0.00 | 0.00 | 0.33 | 95 | 664.9 |
| 20260506161638 | 17 | 158 | 0.0 | 321.9 | 0.03 | 0.00 | 0.33 | 94 | 652.2 |
| 20260506161137 | 17 | 160 | 0.0 | 321.9 | 0.05 | 0.00 | 0.33 | 94 | 644.9 |
| 20260506160636 | 17 | 161 | 0.0 | 321.9 | 0.10 | 0.00 | 0.33 | 94 | 649.4 |
| 20260506160135 | 17 | 181 | 0.0 | 321.9 | 0.13 | 0.00 | 0.33 | 95 | 660.5 |
| 20260506155635 | 17 | 134 | 0.0 | 321.9 | 0.18 | 0.00 | 0.33 | 95 | 630.8 |
| 20260506155134 | 17 | 188 | 0.0 | 321.9 | 0.20 | 0.00 | 0.33 | 95 | 614.9 |
| 20260506154127 | 17 | 166 | 0.0 | 321.9 | 0.20 | 0.00 | 0.33 | 94 | 676.3 |
| 20260506153626 | 17 | 191 | 0.0 | 321.9 | 0.23 | 0.00 | 0.33 | 94 | 681.9 |
| 20260506153125 | 17 | 151 | 0.0 | 321.9 | 0.23 | 0.00 | 0.33 | 94 | 663.3 |
| 20260506151553 | 17 | 175 | 0.0 | 321.9 | 0.28 | 0.00 | 0.33 | 92 | 683.9 |
| 20260506151052 | 17 | 210 | 0.0 | 321.9 | 0.23 | 0.00 | 0.28 | 92 | 706.9 |
| 20260506144457 | 17 | 177 | 0.0 | 321.9 | 0.13 | 0.00 | 0.13 | 91 | 685.5 |
| 20260506143956 | 17 | 199 | 0.0 | 321.9 | 0.13 | 0.00 | 0.13 | 91 | 699.8 |
| 20260506142949 | 17 | 154 | 0.0 | 321.9 | 0.08 | 0.00 | 0.08 | 91 | 624.1 |
| 20260506142448 | 17 | 164 | 0.0 | 321.9 | 0.05 | 0.00 | 0.05 | 90 | 656.8 |
| 20260506141947 | 17 | 177 | 0.0 | 321.9 | 0.05 | 0.00 | 0.05 | 89 | 656.5 |
| 20260506141446 | 17 | 140 | 0.0 | 321.9 | 0.03 | 0.00 | 0.03 | 89 | 660.2 |
| 20260506140945 | 17 | 175 | 0.0 | 321.9 | 0.03 | 0.00 | 0.03 | 88 | 678.2 |
| 20260506140444 | 17 | 170 | 0.0 | 321.9 | 0.03 | 0.00 | 0.03 | 88 | 674.1 |
| 20260506135943 | 17 | 159 | 0.0 | 321.9 | 0.00 | 0.00 | 0.00 | 88 | 665.4 |
| 20260506134926 | 17 | 185 | 0.0 | 321.9 | 0.00 | 0.00 | 0.00 | 86 | 690.3 |
| 20260506134425 | 17 | 173 | 0.0 | 321.9 | 0.00 | 0.00 | 0.00 | 86 | 668.1 |
| 20260506133924 | 18 | 187 | 0.0 | 321.9 | 0.00 | 0.00 | 0.00 | 85 | 666.4 |
| 20260506132907 | 18 | 203 | 0.0 | 321.9 | 0.00 | 0.00 | 0.00 | 85 | 642.6 |
| 20260506132406 | 18 | 153 | 0.0 | 321.9 | 0.00 | 0.00 | 0.00 | 84 | 584.7 |
| 20260506131905 | 18 | 159 | 0.0 | 321.9 | 0.00 | 0.00 | 0.00 | 84 | 553.9 |
| 20260506131405 | 18 | 133 | 0.0 | 321.9 | 0.00 | 0.00 | 0.00 | 85 | 525.9 |
| 20260506130348 | 18 | 62 | 0.0 | 321.9 | 0.00 | 0.00 | 0.00 | 85 | 490.4 |
| 20260506125847 | 18 | 130 | 0.0 | 321.9 | 0.00 | 0.00 | 0.00 | 86 | 603.6 |
| 20260506124830 | 18 | 197 | 0.0 | 321.9 | 0.00 | 0.00 | 0.00 | 86 | 656.7 |
| 20260506124329 | 18 | 167 | 0.0 | 321.9 | 0.00 | 0.00 | 0.00 | 85 | 595.5 |
| 20260506123828 | 18 | 111 | 0.0 | 321.9 | 0.00 | 0.00 | 0.00 | 86 | 565.6 |
| 20260506123326 | 18 | 154 | 0.0 | 321.9 | 0.00 | 0.00 | 0.00 | 85 | 640.6 |
| 20260506122825 | 18 | 166 | 0.0 | 321.9 | 0.00 | 0.00 | 0.00 | 84 | 667.6 |
| 20260506122324 | 18 | 202 | 0.0 | 321.9 | 0.00 | 0.00 | 0.00 | 83 | 681.8 |
| 20260506121317 | 18 | 151 | 0.0 | 321.9 | 0.00 | 0.00 | 0.00 | 82 | 636.7 |
| 20260506120816 | 18 | 195 | 0.0 | 321.9 | 0.00 | 0.00 | 0.00 | 83 | 682.8 |
| 20260506120315 | 18 | 153 | 0.0 | 321.9 | 0.00 | 0.00 | 0.00 | 83 | 654.6 |
| 20260506115814 | 18 | 168 | 0.0 | 321.9 | 0.00 | 0.00 | 0.00 | 82 | 654.3 |
| 20260506115313 | 18 | 168 | 0.0 | 321.9 | 0.00 | 0.00 | 0.00 | 83 | 649.5 |
| 20260506113750 | 18 | 176 | 0.0 | 321.9 | 0.00 | 0.00 | 0.00 | 83 | 659.8 |
| 20260506113249 | 18 | 151 | 0.0 | 321.9 | 0.00 | 0.00 | 0.00 | 83 | 652.9 |
| 20260506112748 | 18 | 167 | 0.0 | 321.9 | 0.00 | 0.00 | 0.00 | 83 | 651.7 |
| 20260506111731 | 18 | 178 | 0.0 | 321.9 | 0.00 | 0.00 | 0.00 | 83 | 629.9 |
| 20260506111230 | 18 | 163 | 0.0 | 321.9 | 0.00 | 0.00 | 0.00 | 83 | 625.5 |
| 20260506110730 | 18 | 94 | 0.0 | 321.9 | 0.00 | 0.00 | 0.00 | 83 | 603.4 |
| 20260506105714 | 17 | 171 | 0.0 | 321.9 | 0.00 | 0.00 | 0.00 | 83 | 665.3 |
| 20260506104707 | 17 | 169 | 0.0 | 321.9 | 0.00 | 0.00 | 0.00 | 84 | 653.9 |
| 20260506103650 | 17 | 115 | 0.0 | 321.9 | 0.00 | 0.00 | 0.00 | 84 | 620.6 |
| 20260506103149 | 17 | 163 | 0.0 | 321.9 | 0.00 | 0.00 | 0.00 | 84 | 636.8 |
| 20260506102648 | 17 | 166 | 0.0 | 321.9 | 0.00 | 0.00 | 0.00 | 84 | 628.3 |
| 20260506102147 | 17 | 164 | 0.0 | 321.9 | 0.00 | 0.00 | 0.00 | 84 | 620.2 |
| 20260506101646 | 17 | 133 | 0.0 | 321.9 | 0.00 | 0.00 | 0.00 | 84 | 614.6 |
| 20260506101145 | 17 | 175 | 0.0 | 321.9 | 0.00 | 0.00 | 0.00 | 84 | 633.3 |
| 20260506100643 | 17 | 121 | 0.0 | 321.9 | 0.00 | 0.00 | 0.00 | 84 | 607.7 |
| 20260506100142 | 17 | 169 | 0.0 | 321.9 | 0.00 | 0.00 | 0.00 | 84 | 632.4 |
| 20260506095641 | 17 | 142 | 0.0 | 321.9 | 0.00 | 0.00 | 0.00 | 83 | 615.7 |
| 20260506095140 | 17 | 117 | 0.0 | 321.9 | 0.00 | 0.00 | 0.00 | 83 | 599.5 |
| 20260506093110 | 18 | 173 | 0.0 | 321.9 | 0.00 | 0.00 | 0.00 | 82 | 643.9 |
| 20260506092610 | 18 | 152 | 0.0 | 321.9 | 0.00 | 0.00 | 0.00 | 82 | 639.3 |
| 20260506091604 | 18 | 170 | 0.0 | 321.9 | 0.00 | 0.00 | 0.00 | 81 | 613.1 |
| 20260506090558 | 18 | 162 | 0.0 | 321.9 | 0.00 | 0.00 | 0.00 | 81 | 632.7 |
| 20260506090057 | 18 | 164 | 0.0 | 321.9 | 0.00 | 0.00 | 0.00 | 81 | 616.9 |
| 20260506085556 | 18 | 151 | 0.0 | 321.9 | 0.00 | 0.00 | 0.00 | 80 | 638.1 |
| 20260506084539 | 18 | 188 | 0.0 | 321.9 | 0.00 | 0.00 | 0.00 | 81 | 654.2 |
| 20260506084038 | 18 | 159 | 0.0 | 321.9 | 0.00 | 0.00 | 0.00 | 80 | 642.5 |
| 20260506083537 | 18 | 172 | 0.0 | 321.9 | 0.00 | 0.00 | 0.00 | 81 | 646.1 |
| 20260506083036 | 18 | 176 | 0.0 | 321.9 | 0.00 | 0.00 | 0.00 | 81 | 641.9 |
| 20260506082534 | 18 | 163 | 0.0 | 321.9 | 0.00 | 0.00 | 0.00 | 80 | 652.0 |
| 20260506082033 | 18 | 193 | 0.0 | 321.9 | 0.00 | 0.00 | 0.00 | 80 | 659.4 |
| 20260506081016 | 18 | 159 | 0.0 | 321.9 | 0.00 | 0.00 | 0.00 | 80 | 619.0 |
| 20260506072443 | 19 | 140 | 0.0 | 321.9 | 0.00 | 0.00 | 0.00 | 78 | 639.0 |
| 20260506071942 | 19 | 160 | 0.0 | 321.9 | 0.00 | 0.00 | 0.00 | 77 | 667.2 |
| 20260506071441 | 19 | 159 | 0.0 | 321.9 | 0.00 | 0.00 | 0.00 | 77 | 659.0 |
| 20260506070942 | 19 | 182 | 0.0 | 321.9 | 0.00 | 0.00 | 0.00 | 77 | 689.5 |